[Iaude] MPEC K72: 2017 BG232 [a=43.01,e=0.08,i=5.2,H=8.55]

mpec at cfa.harvard.edu mpec at cfa.harvard.edu
Thu May 23 13:10:37 EDT 2024


M.P.E.C. 2024-K72                                  Issued 2024 May 23, 17:09 UT

     The Minor Planet Electronic Circulars contain information on unusual
         minor planets, routine data on comets and natural satellites,
         and occasional editorial announcements.  They are published
    on behalf of Division F of the International Astronomical Union by the
          Minor Planet Center, Smithsonian Astrophysical Observatory,
                          Cambridge, MA 02138, U.S.A.
			  
             Prepared using the Tamkin Foundation Computer Network

                              MPC at CFA.HARVARD.EDU
            URL https://www.minorplanetcenter.net/    ISSN 1523-6714

                                   2017 BG232                                   


Additional Observations:
     K17BN2G 1C2016 04 02.38997212 22 07.22 -00 09 08.2                WEK072T09
     K17BN2G 1C2016 04 02.50170512 22 06.72 -00 09 05.1                WEK072T09
     K17BN2G 1C2016 06 05.31148812 18 50.61 +00 08 51.5                WEK072T09
     K17BN2G 1C2016 06 05.35611412 18 50.55 +00 08 51.6                WEK072T09
     K17BN2G 1C2017 01 23.64651712 30 41.56 -01 11 50.4                WEK072T09
     K17BN2G 1C2017 02 02.60940612 30 23.28 -01 09 37.6                WEK072T09
     K17BN2G 1C2017 02 02.63612712 30 23.22 -01 09 37.2                WEK072T09

Observer details:
T09 Subaru Telescope, Maunakea.  Observer .  Measurer S. Deen.  8.3-m Subaru
    Telescope + CCD.

Orbital elements:
2017 BG232                                                                      
Epoch 2024 Mar. 31.0 TT = JDT 2460400.5                 Alexandersen            
M 282.30783              (2000.0)            P               Q                  
n   0.00349377     Peri.  253.76696     +0.20507389     +0.97782222             
a  43.0136892      Node    28.17474     -0.86007300     +0.20077579             
e   0.0768471      Incl.    5.16736     -0.46713931     +0.05960527             
P 282              H    8.55          G   0.15           U   7                  
Residuals in seconds of arc
160402 T09  0.0   0.1-    170128 T09  0.0   0.1+    170202 T09  0.1+  0.0
160402 T09  0.0   0.1+    170128 T09  0.1-  0.2-    170202 T09  0.1+  0.1-
160605 T09  0.1+  0.0     170128 T09  0.2-  0.1+    170223 T09  0.0   0.0
160605 T09  0.1-  0.0     170128 T09  0.1-  0.1+    170223 T09  0.2+  0.0
170123 T09  0.1+  0.0     170128 T09  0.0   0.1+    170223 T09  0.3-  0.0

Ephemeris:
2017 BG232               a,e,i = 43.01, 0.08, 5                  q = 39.7082
Date    TT    R. A. (2000) Decl.     Delta      r    Elong.  Phase     V
2024 04 23    12 57 50.2 -04 55 52  41.5938 42.5521   162.2     0.4    24.9
...
2024 05 08    12 56 50.4 -04 50 09  41.6956 42.5491   147.4     0.7    24.9
...
2024 05 16    12 56 22.7 -04 47 34  41.7733 42.5475   139.5     0.9    24.9
...
2024 05 22    12 56 04.3 -04 45 54  41.8410 42.5462   133.7     1.0    25.0
2024 05 23    12 56 01.5 -04 45 39  41.8530 42.5460   132.7     1.0    25.0
2024 05 24    12 55 58.7 -04 45 24  41.8652 42.5458   131.7     1.0    25.0
...
2024 05 30    12 55 43.5 -04 44 04  41.9423 42.5446   125.9     1.1    25.0
...
2024 06 07    12 55 27.2 -04 42 44  42.0546 42.5430   118.2     1.2    25.0
...
2024 06 22    12 55 10.4 -04 41 42  42.2867 42.5400   103.8     1.3    25.0

M. P. C. Staff               (C) Copyright 2024 MPC           M.P.E.C. 2024-K72





More information about the Iaude mailing list